User: anonymous   Login
Location: Oshawa
(43.9000°N, 78.8670°W)
Time: 00:03:42
(UTC-04:00)
Language:

Explorer 7 - Orbit

View from above orbital plane
View from above orbital plane
View from above satellite
View from above satellite

Ground track
Ground track

The orbit data is extracted from the following two-line orbital elements,

1 00022U 59009A   16148.55557346  .00000308  00000-0  47462-4 0  9995
2 00022  50.2841 208.0108 0143795   2.7690 357.4021 14.93476997  3709
Epoch (UTC): 27 May 2016 13:20:01
Eccentricity: 0.0143795
inclination: 50.2841°
perigee height: 487 km
apogee height: 687 km
right ascension of ascending node: 208.0108°
argument of perigee: 2.7690°
revolutions per day: 14.93476997
mean anomaly at epoch: 357.4021°
orbit number at epoch: 370

The dashed part of the orbit path shows where the satellite is in the earth's shadow,  

DLR